TimeCDT,TemperatureF,Dew PointF,Humidity,Sea Level PressureIn,VisibilityMPH,Wind Direction,Wind SpeedMPH,Gust SpeedMPH,PrecipitationIn,Events,Conditions,WindDirDegrees,DateUTC
12:53 AM,73.9,69.1,85,29.99,10.0,SE,4.6,-,N/A,,Clear,140,2012-10-06 05:53:00
2:53 AM,72.0,66.9,84,29.98,10.0,East,3.5,-,N/A,,Clear,100,2012-10-06 07:53:00
3:53 AM,71.1,66.9,87,29.96,10.0,ENE,4.6,-,N/A,,Clear,60,2012-10-06 08:53:00
4:43 AM,71.6,66.2,83,29.97,9.0,ENE,5.8,-,N/A,,Mostly Cloudy,60,2012-10-06 09:43:00
4:53 AM,71.1,66.9,87,29.97,10.0,NE,4.6,-,N/A,,Mostly Cloudy,50,2012-10-06 09:53:00
5:03 AM,71.6,66.2,83,29.98,9.0,NE,3.5,-,N/A,,Mostly Cloudy,50,2012-10-06 10:03:00
5:53 AM,70.0,66.9,90,29.99,9.0,NE,5.8,-,N/A,,Partly Cloudy,50,2012-10-06 10:53:00
6:53 AM,69.1,66.0,90,30.00,9.0,ENE,4.6,-,N/A,,Clear,60,2012-10-06 11:53:00
8:53 AM,75.9,71.1,85,30.02,10.0,ENE,3.5,-,N/A,,Clear,70,2012-10-06 13:53:00
9:53 AM,82.0,71.1,69,30.03,10.0,East,4.6,-,N/A,,Clear,80,2012-10-06 14:53:00
10:53 AM,84.9,66.9,55,30.02,10.0,Variable,3.5,-,N/A,,Partly Cloudy,0,2012-10-06 15:53:00
11:53 AM,86.0,66.9,53,30.02,10.0,East,4.6,-,N/A,,Scattered Clouds,90,2012-10-06 16:53:00
12:53 PM,87.1,66.9,51,30.01,10.0,Variable,4.6,-,N/A,,Partly Cloudy,0,2012-10-06 17:53:00
1:53 PM,87.1,66.9,51,29.97,10.0,SSE,9.2,-,N/A,,Clear,150,2012-10-06 18:53:00
2:53 PM,87.1,68.0,53,29.95,10.0,South,11.5,-,N/A,,Clear,180,2012-10-06 19:53:00
3:53 PM,87.1,68.0,53,29.94,10.0,SSE,8.1,-,N/A,,Clear,160,2012-10-06 20:53:00
4:53 PM,86.0,68.0,55,29.93,10.0,SE,10.4,-,N/A,,Clear,140,2012-10-06 21:53:00
5:53 PM,84.2,69.8,62,29.93,10.0,SE,8.1,-,N/A,,Clear,140,2012-10-06 22:53:00
6:53 PM,81.0,70.0,69,29.94,10.0,ESE,8.1,-,N/A,,Clear,110,2012-10-06 23:53:00
7:53 PM,79.0,71.1,77,29.96,10.0,ENE,3.5,-,N/A,,Clear,70,2012-10-07 00:53:00
8:53 PM,77.0,70.0,79,29.97,10.0,East,5.8,-,N/A,,Clear,100,2012-10-07 01:53:00
9:53 PM,75.0,70.0,84,29.99,10.0,ENE,3.5,-,N/A,,Partly Cloudy,60,2012-10-07 02:53:00
10:19 PM,77.0,69.8,78,30.00,10.0,NNE,6.9,-,N/A,,Overcast,20,2012-10-07 03:19:00
10:53 PM,73.0,66.0,79,30.01,8.0,North,13.8,-,N/A,,Mostly Cloudy,10,2012-10-07 03:53:00
11:53 PM,72.0,64.9,78,30.01,7.0,NNE,13.8,-,N/A,,Partly Cloudy,20,2012-10-07 04:53:00